Regional Weather Roundup
Issued by NWS Kansas City/Pleasant Hill, MO

Home | Current Version | Previous Version | Text Only | Print | Product List | Glossary On
Versions: 1 2 3 4 5 6 7 8 9 10 11 12 13 14 15 16 17 18 19 20 21 22 23 24 25 26 27 28 29 30 31 32 33 34 35 36 37 38 39 40 41 42 43 44 45 46 47 48 49 50
000
ASUS43 KEAX 190410
RWREAX

WEATHER ROUNDUP FOR EASTERN KANSAS AND NORTHWEST MISSOURI
NATIONAL WEATHER SERVICE KANSAS CITY/PLEASANT HILL MO
1000 PM CST SUN FEB 18 2018

KSZ040-057-103>105-MOZ028-029-037-043-190500-
...KANSAS CITY METROPOLITAN AREA...

CITY           SKY/WX    TMP DP  RH WIND       PRES   REMARKS
K.C. INTL      CLOUDY    53  46  77 S20G30    29.69S
K.C. DOWNTOWN  CLOUDY    55  45  68 S18G25    29.71R
LEES SUMMIT    CLOUDY    53  47  79 S23G36    29.71S
OLATHE - IXD   CLOUDY    52  47  83 S25G33    29.70F
OLATHE - OJC   CLOUDY    51  46  83 S20G33    29.70F
LAWRENCE       CLOUDY    53  47  79 S13G24    29.68F

$$

MOZ001>008-011>017-020>025-030>033-038>040-044>046-053-054-190500-
...NORTHERN AND CENTRAL MISSOURI...

CITY           SKY/WX    TMP DP  RH WIND       PRES   REMARKS
ST. JOSEPH     CLOUDY    54  45  71 S20       29.67S
MOSBY          CLOUDY    55  45  67 S12G20    29.72F
WARRENSBURG    CLOUDY    54  37  54 S13G20    29.75S
WHITEMAN AFB   CLOUDY    53  41  65 S14       29.72R
CLINTON        CLOUDY    54  45  71 S10       29.78S
SEDALIA        CLOUDY    54  45  71 S18       29.78R
WARSAW         NOT AVBL
CHILLICOTHE      N/A     53  33  46 S10       29.74R
KIRKSVILLE     CLOUDY    50  36  58 S13       29.77R

$$

MOZ041-047>049-056>058-063>065-088>090-097-190500-
...EASTERN AND SOUTHERN MISSOURI...

CITY           SKY/WX    TMP DP  RH WIND       PRES   REMARKS
ST. LOUIS INTL PTCLDY    50  39  66 S15G25    29.88F
SPIRIT OF STL  CLOUDY    50  39  66 VRB5      29.87F
COLUMBIA       CLOUDY    51  39  63 S21G28    29.80S
JEFFERSON CITY CLOUDY    52  40  63 S15G22    29.83S
ROLLA          CLOUDY    49  43  80 S15G29    29.86S
OSAGE BEACH    CLOUDY    51  44  77 S12G20    29.84S
SPRINGFIELD    CLOUDY    49  47  93 S18G26    29.84R
JOPLIN         CLOUDY    56  53  90 S23G35    29.79F
WEST PLAINS    CLOUDY    47  45  93 S14       29.95F

$$

IAZ060-094-KSZ022-034>040-054-083-096-NEZ052-066-093-190500-
...KANSAS...SOUTHEAST NEBRASKA AND IOWA...

CITY           SKY/WX    TMP DP  RH WIND       PRES   REMARKS
TOPEKA         CLOUDY    54  49  83 S12G32    29.64F
MANHATTAN      CLOUDY    55  48  77 S20G29    29.58F
EMPORIA        CLOUDY    51  48  89 S32G43    29.65F
CHANUTE        CLOUDY    52  50  93 S24G33    29.74S
WICHITA        CLOUDY    53  51  93 S22G28    29.65R
OMAHA          CLOUDY    45  38  76 S7        29.63R
LINCOLN        CLOUDY    45  40  82 SE6       29.62R
FALLS CITY     CLOUDY    52  42  69 S14G25    29.63F
LAMONI         CLOUDY    48  32  53 S7        29.70S
DES MOINES     CLOUDY    47  33  58 S9        29.69R

$$




USA.gov is the U.S. government's official web portal to all federal, state and local government web resources and services.